sat.trackr.live / text

‹ back to catalog

STARLINK-35682

NORAD 66467 · 2025-262M

PAYLOAD ACTIVE UNKNOWN

§ Identity

Operator
Country
US
Launch date
2025-11-15
Launch site
AFETR
Launch vehicle
Mass (kg)
RCS (m²)

Purposes: comms

External: N2YO · Heavens-Above · Gunter

§ Orbital elements

Epoch: 2026-09-20T02:22:07.180608Z

Period
94.27 min
Inclination
43.0049°
Eccentricity
0.0001487
Mean motion
15.27581802 rev/d
Perigee alt
482.0 km
Apogee alt
484.1 km
Semi-major
6,861.2 km
B*
3.0245e-4
RAAN
278.6939°
Arg perigee
271.6237°
Mean anomaly
88.4444°
Rev number
4,863

§ Raw data

STARLINK-356821 66467U 25262M   26263.09869422  .00008070  00000+0  30245-3 0  99962 66467  43.0049 278.6939 0001487 271.6237  88.4444 15.27581802 48635

JSON: /api/v1/satellites/66467 · /tle

For live sub-satellite position, see the globe view (requires WebGL).

§ Visibility from observer

Set your observer location to see the next 7 days of passes ≥ 10°. The values pass through the URL so the page stays shareable.

No JS? Fill the form by hand. The geolocation button needs JavaScript.